Regional Weather Roundup
Issued by NWS

Home | Current Version | Previous Version | Text Only | Print | Product List | Glossary On
Versions: 1 2 3 4 5 6 7 8 9 10 11 12 13 14 15 16 17 18 19 20 21 22 23 24 25 26 27 28 29 30 31 32 33 34 35 36 37 38 39 40 41 42 43 44 45 46 47 48 49 50
000
ASUS42 KFFC 271310
RWRGA
WEATHER ROUNDUP FOR GEORGIA
NATIONAL WEATHER SERVICE PEACHTREE CITY GA
900 AM EDT TUE JUN 27 2017

NOTE: "FAIR" INDICATES FEW OR NO CLOUDS BELOW 12,000 FEET WITH NO
SIGNIFICANT WEATHER AND/OR OBSTRUCTIONS TO VISIBILITY.

* = USE WITH CAUTION. THE STATIONS MARKED WITH AN ASTERISK MAY NOT
REPORT WEATHER SUCH AS PRECIPITATION, FOG, OR THUNDER AND ARE NOT
QUALITY CONTROLLED BY NWS.

THE REMARK "TC" DENOTES TEMPERATURE READING IN DEGREES CELSIUS.

GAZ001>058-271400-
NORTH GEORGIA

CITY           SKY/WX    TMP DP  RH WIND       PRES   REMARKS
ATLANTA        PTSUNNY   75  59  57 NW7       30.09S
ATHENS         MOSUNNY   72  61  68 CALM      30.08S
CHAMBLEE       SUNNY     74  58  57 CALM      30.10R
PEACHTREE CITY MOSUNNY   70  65  84 CALM      30.09S
ROME           SUNNY     69  63  81 N5        30.11R
WEST ATLANTA   SUNNY     73  63  70 CALM      30.10R
GAINESVILLE    SUNNY     70  59  68 NW5       30.11S
CARTERSVILLE   SUNNY     69  64  84 CALM      30.12R


CITY           SKY/WX    TMP DP  RH WIND       PRES   REMARKS
DALTON*        SUNNY     68  63  83 N5        30.13R
LAWRENCEVILLE* SUNNY     72  59  64 CALM      30.10R
MARIETTA       PTSUNNY   73  58  60 NW6       30.10R
KENNESAW*      MOSUNNY   70  63  78 CALM      30.09F
CANTON*        SUNNY     70  63  78 NW3       30.12S
$$

GAZ059>098-102>109-271400-
CENTRAL GEORGIA

CITY           SKY/WX    TMP DP  RH WIND       PRES   REMARKS
AUGUSTA-BUSH   SUNNY     77  68  73 CALM      30.05R
AUGUSTA-DANIEL PTSUNNY   76  61  59 NW3       30.07R
COLUMBUS       PTSUNNY   75  61  61 CALM      30.06R
MACON          PTSUNNY   75  65  70 N3        30.06S
ROBINS AFB     SUNNY     74  67  78 CALM      30.06S


CITY           SKY/WX    TMP DP  RH WIND       PRES   REMARKS
LAGRANGE*      PTSUNNY   73  66  79 CALM      30.09R
SYLVANIA*      MOSUNNY   76  73  90 CALM      30.06R
MILLEDGEVILLE* PTSUNNY   72  70  94 CALM      30.07S
$$

GAZ099>101-110>166-271400-
SOUTH GEORGIA

CITY           SKY/WX    TMP DP  RH WIND       PRES   REMARKS
SAVANNAH       CLOUDY    78  71  79 CALM      30.05R
VALDOSTA       CLOUDY    73  72  96 CALM      30.04R
ALMA           MOSUNNY   76  73  91 CALM      30.04R
ST SIMONS      MOSUNNY   80  76  87 N8        30.02R
ALBANY         PTSUNNY   76  72  87 CALM      30.06R
MOODY AFB      CLOUDY    73  72  94 CALM      30.02S
BRUNSWICK      MOSUNNY   79  77  94 N5        30.03S


CITY           SKY/WX    TMP DP  RH WIND       PRES   REMARKS
BAINBRIDGE*    PTSUNNY   77  75  94 CALM      30.04R
MOULTRIE*      MOSUNNY   75  72  88 NE3       30.05S
VIDALIA*       MOSUNNY   77  73  88 CALM      30.05S
WAYCROSS*      PTSUNNY   78  78 100 CALM      30.04R
DOUGLAS*       CLOUDY    75  72  88 CALM      30.06S
$$




USA.gov is the U.S. government's official web portal to all federal, state and local government web resources and services.